COSMOS 2251 DEB, 38199

Orbit data source: Space-Track

COSMOS 2251 DEB, 38199 is space debris in LEO originally from a launch on Wed, 16 Jun 1993 UTC launched from the Plesetsk Missile And Space Complex (PKMTR). The debris from Iridium 33, an American commercial communications satellite, has been tracked extensively since its accidental collision with the defunct Russian satellite Cosmos 2251 in 2009. This event, occurring at high speed in low Earth orbit (LEO), generated thousands of pieces of space debris, significantly increasing the risk of further collisions. The Iridium 33 debris cloud has impacted space traffic management and orbital debris mitigation strategies, making it a subject of ongoing study in space situational awareness.

Loading next visibility...
Identifier
38199, 1993-036BSP
Orbit
LEO
Country
Flag of CISCIS
Related business
Manufacturer
Unknown
Mission
Spacecraft
Bus & Motor
Unknown
Mass
Unknown
Launch date (UTC)
1993-06-16 (33 years ago)
Launch vehicle
Unknown
Launch site
Plesetsk Missile And Space Complex (PKMTR)
Object type
Payload
Rocket body
Debris
Shape & HBR
Unknown shape, 0.1 m
Radar Cross Section
Small (<0.1 m²)

Expand to show TLE details & history
Last TLE update: 2 days ago

TLE from 2 days ago
0 COSMOS 2251 DEB
1 38199U 93036BSP 26205.88804914  .00000372  00000-0  30956-3 0  9996
2 38199  73.9563  53.8152 0366419 296.3314  60.0601 13.65129392640808
Epoch: 2026-07-24T21:18Z
TLE epoch observation values (Epoch: 2026-07-24T21:18:47.445Z)
Latitude
0.00001°
Longitude
151.50929°
Altitude
892.036 km
Speed
7.47 km/s
True Right ascension
03h 35m 15s
True Declination
0° 00' 00"
Sunlit
Object was in daylight at epoch
Visualization orbit readout
Latitude
Unknown
Longitude
Unknown
Altitude
Unknown
Speed
Unknown
Apparent Right ascension
Unknown
Apparent Declination
Unknown
Sunlit
N/A
Visualization observer readout
Local Sidereal Time
18:31:00
Azimuth
Unknown
Elevation
Unknown
Doppler factor
Unknown
Orbital elements
Apogee altitude
1,285.706 km
Perigee altitude
743.922 km
Semi-major axis
7,392.951 km
Eccentricity
0.03664
Inclination
73.9563°
RAAN
53.8152°
Arg. of periapsis
296.3314°
True anomaly
63.78103°
Mean anomaly
60.0601°
Eccentric anomaly
61.91227°
Mean motion
3.41442 °/min
Orbital period
105.44 mins
BSTAR
0.00030956
Loading maneuver chart data...
Computing Atmospheric mass density...

Documentation

Showing up to 5 results
|